RLXB4W LEPA-LEIB

Flight info

Callsign RLXB4W
Flight time 0h 28m
Altitude 11000
Route NELUX
Aircraft B738/M-SDE2E3FGHIRWXY/LB1

Departure

Time 2026-05-07 19:25
Airport Palma de Mallorca Airport (LEPA)

Arrival

Time 2026-05-07 19:53
Airport Ibiza Airport (LEIB)
Time Latitude Longitude Altitude Speed Heading
2026-05-07 18:42 39.54987 2.73328 35 ft 0 kts 184°
2026-05-07 19:05 39.54998 2.73325 33 ft 2 kts 138°
2026-05-07 19:05 39.55007 2.73307 32 ft 2 kts 103°
2026-05-07 19:05 39.55009 2.73286 31 ft 2 kts 90°
2026-05-07 19:06 39.55009 2.73279 31 ft 0 kts 87°
2026-05-07 19:17 39.55009 2.73281 35 ft 3 kts 86°
2026-05-07 19:18 39.55028 2.73386 34 ft 15 kts 63°
2026-05-07 19:18 39.55081 2.73498 35 ft 14 kts 58°
2026-05-07 19:18 39.55133 2.73605 34 ft 14 kts 58°
2026-05-07 19:18 39.55179 2.73707 34 ft 13 kts 76°
2026-05-07 19:19 39.55129 2.73781 35 ft 11 kts 147°
2026-05-07 19:19 39.55062 2.73832 34 ft 11 kts 149°
2026-05-07 19:19 39.54998 2.73883 35 ft 11 kts 148°
2026-05-07 19:19 39.54941 2.73940 35 ft 10 kts 118°
2026-05-07 19:20 39.54942 2.74028 35 ft 10 kts 122°
2026-05-07 19:20 39.54885 2.74078 35 ft 10 kts 149°
2026-05-07 19:20 39.54825 2.74119 35 ft 10 kts 165°
2026-05-07 19:20 39.54768 2.74089 35 ft 9 kts 232°
2026-05-07 19:21 39.54734 2.74018 35 ft 9 kts 239°
2026-05-07 19:21 39.54702 2.73949 35 ft 10 kts 239°
2026-05-07 19:21 39.54664 2.73866 35 ft 9 kts 239°
2026-05-07 19:21 39.54631 2.73791 35 ft 22 kts 240°
2026-05-07 19:22 39.54546 2.73613 35 ft 22 kts 238°
2026-05-07 19:22 39.54469 2.73448 35 ft 21 kts 238°
2026-05-07 19:22 39.54394 2.73288 34 ft 20 kts 239°
2026-05-07 19:22 39.54320 2.73134 35 ft 19 kts 238°
2026-05-07 19:23 39.54259 2.73029 35 ft 12 kts 214°
2026-05-07 19:23 39.54194 2.73058 35 ft 8 kts 120°
2026-05-07 19:23 39.54192 2.73063 35 ft 0 kts 118°
2026-05-07 19:24 39.54169 2.73215 35 ft 30 kts 88°
2026-05-07 19:24 39.54231 2.73399 34 ft 48 kts 60°
2026-05-07 19:24 39.54558 2.74093 35 ft 128 kts 58°
2026-05-07 19:24 39.55122 2.75290 313 ft 171 kts 59°
2026-05-07 19:25 39.55754 2.76679 988 ft 196 kts 61°
2026-05-07 19:25 39.56268 2.78482 1272 ft 230 kts 75°
2026-05-07 19:25 39.56656 2.80502 2253 ft 226 kts 75°
2026-05-07 19:25 39.56881 2.82524 3003 ft 232 kts 95°
2026-05-07 19:26 39.56384 2.84504 3821 ft 229 kts 110°
2026-05-07 19:26 39.56167 2.86538 4506 ft 234 kts 81°
2026-05-07 19:26 39.56324 2.88650 5256 ft 237 kts 88°
2026-05-07 19:26 39.56362 2.90796 5774 ft 239 kts 90°
2026-05-07 19:27 39.56311 2.92981 6178 ft 241 kts 91°
2026-05-07 19:27 39.56247 2.95137 6833 ft 240 kts 91°
2026-05-07 19:27 39.56183 2.97257 7663 ft 234 kts 92°
2026-05-07 19:27 39.56122 2.99318 8596 ft 226 kts 92°
2026-05-07 19:28 39.55908 3.01356 9111 ft 238 kts 112°
2026-05-07 19:28 39.54788 3.03029 9301 ft 263 kts 149°
2026-05-07 19:28 39.52968 3.03685 9675 ft 282 kts 176°
2026-05-07 19:28 39.50992 3.03363 10193 ft 295 kts 195°
2026-05-07 19:29 39.49009 3.02334 10361 ft 319 kts 203°
2026-05-07 19:29 39.46954 3.01018 10528 ft 340 kts 205°
2026-05-07 19:29 39.44789 2.99598 10666 ft 359 kts 205°
2026-05-07 19:29 39.42502 2.98131 10890 ft 371 kts 204°
2026-05-07 19:30 39.40139 2.96652 10955 ft 386 kts 204°
2026-05-07 19:30 39.37683 2.95147 10949 ft 393 kts 204°
2026-05-07 19:30 39.35189 2.93639 10942 ft 395 kts 204°
2026-05-07 19:30 39.32695 2.92141 10943 ft 394 kts 203°
2026-05-07 19:31 39.30216 2.90659 10952 ft 390 kts 203°
2026-05-07 19:31 39.27765 2.89195 10944 ft 386 kts 203°
2026-05-07 19:31 39.25331 2.87741 10948 ft 386 kts 203°
2026-05-07 19:31 39.22896 2.86287 10947 ft 386 kts 204°
2026-05-07 19:32 39.20629 2.84427 10931 ft 390 kts 223°
2026-05-07 19:32 39.19025 2.81605 10951 ft 394 kts 240°
2026-05-07 19:32 39.18057 2.78298 10950 ft 397 kts 253°
2026-05-07 19:32 39.17389 2.74842 10938 ft 398 kts 254°
2026-05-07 19:33 39.16745 2.71376 10942 ft 398 kts 255°
2026-05-07 19:33 39.16099 2.67906 10931 ft 398 kts 255°
2026-05-07 19:33 39.15440 2.64435 10938 ft 398 kts 255°
2026-05-07 19:33 39.14771 2.60978 10943 ft 398 kts 254°
2026-05-07 19:34 39.14099 2.57558 10940 ft 398 kts 255°
2026-05-07 19:34 39.13416 2.54108 10940 ft 397 kts 255°
2026-05-07 19:34 39.12730 2.50658 10946 ft 397 kts 254°
2026-05-07 19:34 39.12040 2.47201 10947 ft 398 kts 254°
2026-05-07 19:35 39.11351 2.43759 10953 ft 397 kts 255°
2026-05-07 19:35 39.10660 2.40305 10952 ft 397 kts 254°
2026-05-07 19:35 39.09968 2.36855 10947 ft 398 kts 254°
2026-05-07 19:35 39.09279 2.33423 10947 ft 393 kts 253°
2026-05-07 19:36 39.08597 2.30029 10944 ft 391 kts 254°
2026-05-07 19:36 39.07911 2.26623 10953 ft 394 kts 254°
2026-05-07 19:36 39.07227 2.23236 10953 ft 399 kts 254°
2026-05-07 19:36 39.06517 2.19770 10949 ft 399 kts 252°
2026-05-07 19:37 39.05520 2.16470 10939 ft 394 kts 242°
2026-05-07 19:37 39.04079 2.13500 10947 ft 391 kts 231°
2026-05-07 19:37 39.02338 2.10808 10957 ft 392 kts 229°
2026-05-07 19:37 39.00573 2.08132 10944 ft 393 kts 229°
2026-05-07 19:38 38.98811 2.05444 10936 ft 393 kts 229°
2026-05-07 19:38 38.97058 2.02748 10943 ft 393 kts 229°
2026-05-07 19:38 38.95310 2.00042 10943 ft 393 kts 229°
2026-05-07 19:38 38.93569 1.97344 10942 ft 392 kts 229°
2026-05-07 19:39 38.91831 1.94650 10944 ft 391 kts 229°
2026-05-07 19:39 38.90380 1.91702 10907 ft 394 kts 249°
2026-05-07 19:39 38.89717 1.88294 10956 ft 393 kts 257°
2026-05-07 19:39 38.89076 1.84876 10946 ft 394 kts 256°
2026-05-07 19:40 38.88393 1.81503 10939 ft 395 kts 255°
2026-05-07 19:40 38.87689 1.78094 10936 ft 395 kts 255°
2026-05-07 19:40 38.86992 1.74731 10929 ft 387 kts 255°
2026-05-07 19:40 38.86308 1.71415 10924 ft 383 kts 255°
2026-05-07 19:41 38.85626 1.68105 10940 ft 383 kts 255°
2026-05-07 19:41 38.84945 1.64798 10935 ft 383 kts 255°
2026-05-07 19:41 38.84264 1.61492 10930 ft 384 kts 255°
2026-05-07 19:41 38.83573 1.58179 10938 ft 385 kts 255°
2026-05-07 19:42 38.82847 1.54875 10944 ft 385 kts 254°
2026-05-07 19:42 38.82118 1.51619 10923 ft 371 kts 253°
2026-05-07 19:42 38.81434 1.48555 10921 ft 353 kts 254°
2026-05-07 19:42 38.80777 1.45606 10925 ft 335 kts 254°
2026-05-07 19:43 38.80128 1.42804 10922 ft 319 kts 250°
2026-05-07 19:43 38.79216 1.40295 10931 ft 304 kts 242°
2026-05-07 19:43 38.78203 1.37973 10928 ft 291 kts 240°
2026-05-07 19:43 38.77233 1.35760 10919 ft 279 kts 241°
2026-05-07 19:44 38.76319 1.33619 10904 ft 268 kts 242°
2026-05-07 19:44 38.75445 1.31533 10814 ft 260 kts 242°
2026-05-07 19:44 38.74619 1.29548 10736 ft 253 kts 242°
2026-05-07 19:44 38.73802 1.27581 10568 ft 249 kts 242°
2026-05-07 19:45 38.72987 1.25625 10344 ft 248 kts 242°
2026-05-07 19:45 38.72173 1.23671 10084 ft 248 kts 242°
2026-05-07 19:45 38.71358 1.21719 9828 ft 249 kts 242°
2026-05-07 19:45 38.70541 1.19758 9540 ft 250 kts 242°
2026-05-07 19:46 38.69722 1.17797 9257 ft 250 kts 243°
2026-05-07 19:46 38.68901 1.15834 8980 ft 250 kts 242°
2026-05-07 19:46 38.68192 1.13808 8672 ft 250 kts 262°
2026-05-07 19:46 38.68399 1.11660 8412 ft 246 kts 293°
2026-05-07 19:47 38.69070 1.09661 8192 ft 244 kts 294°
2026-05-07 19:47 38.69837 1.07726 7883 ft 244 kts 312°
2026-05-07 19:47 38.71189 1.06487 7653 ft 239 kts 342°
2026-05-07 19:47 38.72817 1.06306 7390 ft 236 kts 17°
2026-05-07 19:48 38.74183 1.07385 7157 ft 234 kts 44°
2026-05-07 19:48 38.75222 1.08928 7068 ft 221 kts 52°
2026-05-07 19:48 38.76091 1.10470 6957 ft 205 kts 54°
2026-05-07 19:48 38.76827 1.11963 6798 ft 195 kts 57°
2026-05-07 19:49 38.77500 1.13504 6436 ft 198 kts 60°
2026-05-07 19:49 38.78138 1.15042 6190 ft 193 kts 60°
2026-05-07 19:49 38.78766 1.16573 5879 ft 192 kts 59°
2026-05-07 19:49 38.79396 1.18109 5342 ft 202 kts 58°
2026-05-07 19:50 38.80065 1.19738 4746 ft 210 kts 60°
2026-05-07 19:50 38.80757 1.21424 4128 ft 216 kts 59°
2026-05-07 19:50 38.81457 1.23135 3745 ft 210 kts 59°
2026-05-07 19:50 38.82093 1.24688 3617 ft 186 kts 59°
2026-05-07 19:51 38.82660 1.26068 3307 ft 172 kts 58°
2026-05-07 19:51 38.83225 1.27435 2575 ft 174 kts 59°
2026-05-07 19:51 38.83782 1.28791 1993 ft 167 kts 59°
2026-05-07 19:51 38.84312 1.30084 1454 ft 161 kts 58°
2026-05-07 19:52 38.84829 1.31339 922 ft 157 kts 58°
2026-05-07 19:52 38.85315 1.32522 656 ft 138 kts 58°
2026-05-07 19:52 38.85729 1.33528 472 ft 123 kts 58°
2026-05-07 19:52 38.86120 1.34475 301 ft 123 kts 59°
2026-05-07 19:53 38.86532 1.35463 214 ft 129 kts 59°
2026-05-07 19:53 38.86941 1.36482 36 ft 127 kts 59°
2026-05-07 19:53 38.87245 1.37202 30 ft 66 kts 62°
2026-05-07 19:53 38.87425 1.37649 27 ft 40 kts 61°
2026-05-07 19:54 38.87548 1.37828 29 ft 15 kts 37°
2026-05-07 19:54 38.87632 1.37900 29 ft 14 kts 31°
2026-05-07 19:54 38.87693 1.37849 28 ft 14 kts 252°
2026-05-07 19:54 38.87651 1.37742 28 ft 13 kts 239°
2026-05-07 19:55 38.87608 1.37640 28 ft 13 kts 242°
2026-05-07 19:55 38.87588 1.37564 28 ft 6 kts 294°
2026-05-07 19:55 38.87622 1.37531 28 ft 6 kts 330°
2026-05-07 19:55 38.87664 1.37503 28 ft 10 kts 333°
2026-05-07 19:56 38.87699 1.37428 28 ft 11 kts 262°
2026-05-07 19:56 38.87669 1.37344 28 ft 10 kts 241°
2026-05-07 19:56 38.87636 1.37266 28 ft 10 kts 240°
2026-05-07 19:56 38.87604 1.37189 28 ft 10 kts 242°
2026-05-07 19:57 38.87573 1.37113 28 ft 9 kts 242°
2026-05-07 19:57 38.87545 1.37044 27 ft 6 kts 250°
2026-05-07 19:57 38.87572 1.37016 27 ft 6 kts 347°
2026-05-07 19:57 38.87604 1.36998 27 ft 2 kts 333°
2026-05-07 19:58 38.87604 1.36997 27 ft 0 kts 333°